Hourly Weather Abashevo

Today, 23 October, Friday

Time Temperature Precipitation Wind Pressure Humidity
00:00 +3°C° 0.1 mm 4 mps 744 mmHg 88%
01:00 +2°C° 0.2 mm 5 mps 744 mmHg 88%
02:00 +2°C° 0.2 mm 5 mps 743 mmHg 88%
03:00 +3°C° 0 mm 6 mps 743 mmHg 91%
04:00 +3°C° 0 mm 6 mps 742 mmHg 89%
05:00 +4°C° 0 mm 6 mps 741 mmHg 87%
06:00 +4°C° 0 mm 6 mps 740 mmHg 86%
07:00 +4°C° 0.2 mm 6 mps 740 mmHg 87%
08:00 +5°C° 0.2 mm 6 mps 740 mmHg 88%
09:00 +5°C° 0.2 mm 6 mps 740 mmHg 90%
10:00 +7°C° 0 mm 6 mps 740 mmHg 90%
11:00 +7°C° 0 mm 6 mps 740 mmHg 91%
12:00 +8°C° 0 mm 6 mps 740 mmHg 92%
13:00 +9°C° 0 mm 6 mps 740 mmHg 89%
14:00 +10°C° 0 mm 5 mps 740 mmHg 86%
15:00 +10°C° 0 mm 5 mps 740 mmHg 83%
16:00 +9°C° 0 mm 6 mps 740 mmHg 87%
17:00 +9°C° 0 mm 5 mps 740 mmHg 87%
18:00 +9°C° 0 mm 5 mps 740 mmHg 87%
19:00 +9°C° 0.1 mm 5 mps 740 mmHg 87%
20:00 +9°C° 0.1 mm 5 mps 740 mmHg 88%
21:00 +9°C° 0.1 mm 5 mps 740 mmHg 88%
22:00 +9°C° 0.8 mm 5 mps 739 mmHg 90%
23:00 +9°C° 0.8 mm 6 mps 739 mmHg 92%

Tomorrow, 24 October, Saturday

Time Temperature Precipitation Wind Pressure Humidity
00:00 +9°C° 0.8 mm 6 mps 738 mmHg 93%
01:00 +9°C° 0.1 mm 6 mps 738 mmHg 93%
02:00 +10°C° 0.1 mm 6 mps 738 mmHg 92%
03:00 +10°C° 0.1 mm 6 mps 738 mmHg 92%
04:00 +10°C° 0.1 mm 6 mps 738 mmHg 92%
05:00 +9°C° 0.1 mm 6 mps 738 mmHg 92%
06:00 +9°C° 0.1 mm 6 mps 738 mmHg 92%
07:00 +9°C° 0 mm 6 mps 738 mmHg 89%
08:00 +9°C° 0 mm 6 mps 739 mmHg 87%
09:00 +10°C° 0 mm 6 mps 739 mmHg 84%
10:00 +9°C° 0 mm 5 mps 740 mmHg 83%
11:00 +9°C° 0 mm 5 mps 740 mmHg 81%
12:00 +9°C° 0 mm 5 mps 740 mmHg 79%
13:00 +9°C° 0 mm 5 mps 741 mmHg 78%
14:00 +10°C° 0 mm 4 mps 741 mmHg 77%
15:00 +10°C° 0 mm 4 mps 741 mmHg 75%
16:00 +10°C° 0 mm 4 mps 741 mmHg 77%
17:00 +9°C° 0 mm 3 mps 741 mmHg 80%
18:00 +9°C° 0 mm 3 mps 741 mmHg 82%
19:00 +9°C° 0 mm 3 mps 742 mmHg 82%
20:00 +9°C° 0 mm 3 mps 742 mmHg 83%
21:00 +9°C° 0 mm 2 mps 742 mmHg 84%
22:00 +8°C° 0 mm 2 mps 742 mmHg 84%
23:00 +8°C° 0 mm 2 mps 742 mmHg 84%

Day after tomorrow, 25 October, Sunday

Time Temperature Precipitation Wind Pressure Humidity
00:00 +8°C° 0 mm 2 mps 742 mmHg 84%
01:00 +8°C° 0 mm 2 mps 742 mmHg 85%
02:00 +8°C° 0 mm 2 mps 741 mmHg 86%
03:00 +8°C° 0 mm 2 mps 741 mmHg 86%
04:00 +8°C° 0.4 mm 2 mps 741 mmHg 89%
05:00 +8°C° 0.4 mm 2 mps 741 mmHg 92%
06:00 +8°C° 0.4 mm 2 mps 740 mmHg 95%
07:00 +8°C° 1.1 mm 2 mps 740 mmHg 95%
08:00 +8°C° 1.1 mm 2 mps 740 mmHg 96%
09:00 +8°C° 1.1 mm 2 mps 740 mmHg 96%
10:00 +8°C° 0.2 mm 2 mps 740 mmHg 93%
11:00 +8°C° 0.2 mm 3 mps 740 mmHg 90%
12:00 +9°C° 0.2 mm 3 mps 740 mmHg 87%
13:00 +9°C° 0 mm 3 mps 741 mmHg 83%
14:00 +10°C° 0 mm 4 mps 741 mmHg 78%
15:00 +10°C° 0 mm 4 mps 741 mmHg 74%
16:00 +8°C° 0 mm 4 mps 742 mmHg 77%
17:00 +7°C° 0 mm 4 mps 743 mmHg 81%
18:00 +6°C° 0 mm 4 mps 743 mmHg 84%
19:00 +5°C° 0 mm 4 mps 744 mmHg 85%
20:00 +5°C° 0 mm 4 mps 744 mmHg 87%
21:00 +4°C° 0 mm 3 mps 745 mmHg 88%
22:00 +4°C° 0 mm 3 mps 745 mmHg 90%
23:00 +4°C° 0 mm 3 mps 745 mmHg 91%

, 26 October, Monday

Time Temperature Precipitation Wind Pressure Humidity
00:00 +4°C° 0 mm 3 mps 746 mmHg 92%
01:00 +4°C° 0.1 mm 3 mps 746 mmHg 93%
02:00 +5°C° 0.1 mm 3 mps 747 mmHg 93%
03:00 +5°C° 0.1 mm 4 mps 747 mmHg 94%
04:00 +4°C° 0 mm 4 mps 747 mmHg 94%
05:00 +4°C° 0 mm 4 mps 748 mmHg 95%
06:00 +3°C° 0 mm 4 mps 748 mmHg 95%
07:00 +3°C° 0 mm 4 mps 749 mmHg 92%
08:00 +3°C° 0 mm 4 mps 749 mmHg 89%
09:00 +3°C° 0 mm 5 mps 749 mmHg 86%
10:00 +3°C° 0 mm 5 mps 750 mmHg 80%
11:00 +5°C° 0 mm 5 mps 750 mmHg 74%
12:00 +5°C° 0 mm 5 mps 751 mmHg 69%
13:00 +5°C° 0 mm 4 mps 751 mmHg 67%
14:00 +6°C° 0 mm 4 mps 751 mmHg 65%
15:00 +6°C° 0 mm 4 mps 752 mmHg 63%
16:00 +5°C° 0 mm 3 mps 752 mmHg 68%
17:00 +4°C° 0 mm 3 mps 752 mmHg 73%
18:00 +4°C° 0 mm 2 mps 753 mmHg 79%
19:00 +3°C° 0 mm 2 mps 753 mmHg 81%
20:00 +3°C° 0 mm 2 mps 754 mmHg 82%
21:00 +2°C° 0 mm 2 mps 754 mmHg 84%
22:00 +3°C° 0 mm 1 mps 754 mmHg 86%
23:00 +3°C° 0 mm 1 mps 755 mmHg 87%

26 October, Monday

Time Temperature Precipitation Wind Pressure Humidity
00:00 +4°C° 0 mm 3 mps 746 mmHg 92%
01:00 +4°C° 0.1 mm 3 mps 746 mmHg 93%
02:00 +5°C° 0.1 mm 3 mps 747 mmHg 93%
03:00 +5°C° 0.1 mm 4 mps 747 mmHg 94%
04:00 +4°C° 0 mm 4 mps 747 mmHg 94%
05:00 +4°C° 0 mm 4 mps 748 mmHg 95%
06:00 +3°C° 0 mm 4 mps 748 mmHg 95%
07:00 +3°C° 0 mm 4 mps 749 mmHg 92%
08:00 +3°C° 0 mm 4 mps 749 mmHg 89%
09:00 +3°C° 0 mm 5 mps 749 mmHg 86%
10:00 +3°C° 0 mm 5 mps 750 mmHg 80%
11:00 +5°C° 0 mm 5 mps 750 mmHg 74%
12:00 +5°C° 0 mm 5 mps 751 mmHg 69%
13:00 +5°C° 0 mm 4 mps 751 mmHg 67%
14:00 +6°C° 0 mm 4 mps 751 mmHg 65%
15:00 +6°C° 0 mm 4 mps 752 mmHg 63%
16:00 +5°C° 0 mm 3 mps 752 mmHg 68%
17:00 +4°C° 0 mm 3 mps 752 mmHg 73%
18:00 +4°C° 0 mm 2 mps 753 mmHg 79%
19:00 +3°C° 0 mm 2 mps 753 mmHg 81%
20:00 +3°C° 0 mm 2 mps 754 mmHg 82%
21:00 +2°C° 0 mm 2 mps 754 mmHg 84%
22:00 +3°C° 0 mm 1 mps 754 mmHg 86%
23:00 +3°C° 0 mm 1 mps 755 mmHg 87%

27 October, Tuesday

Time Temperature Precipitation Wind Pressure Humidity
00:00 +2°C° 0 mm 1 mps 755 mmHg 88%
01:00 +2°C° 0 mm 1 mps 755 mmHg 89%
02:00 +2°C° 0 mm 1 mps 755 mmHg 89%
03:00 +1°C° 0 mm 1 mps 755 mmHg 89%
04:00 +1°C° 0 mm 1 mps 756 mmHg 89%
05:00 +1°C° 0 mm 1 mps 756 mmHg 88%
06:00 +1°C° 0 mm 1 mps 756 mmHg 88%
07:00 +2°C° 0 mm 1 mps 757 mmHg 84%
08:00 +3°C° 0 mm 1 mps 757 mmHg 81%
09:00 +2°C° 0 mm 2 mps 757 mmHg 77%
10:00 +3°C° 0 mm 2 mps 757 mmHg 71%
11:00 +4°C° 0 mm 2 mps 757 mmHg 65%
12:00 +6°C° 0 mm 2 mps 757 mmHg 60%
13:00 +6°C° 0 mm 2 mps 757 mmHg 59%
14:00 +6°C° 0 mm 2 mps 757 mmHg 58%
15:00 +6°C° 0 mm 2 mps 757 mmHg 58%
16:00 +5°C° 0 mm 2 mps 757 mmHg 62%
17:00 +4°C° 0 mm 2 mps 757 mmHg 65%
18:00 +3°C° 0 mm 2 mps 757 mmHg 69%
19:00 +3°C° 0 mm 2 mps 756 mmHg 69%
20:00 +2°C° 0 mm 3 mps 756 mmHg 69%
21:00 +1°C° 0 mm 3 mps 756 mmHg 69%
22:00 +1°C° 0 mm 3 mps 756 mmHg 68%
23:00 +1°C° 0 mm 3 mps 756 mmHg 67%

28 October, Wednesday

Time Temperature Precipitation Wind Pressure Humidity
00:00 +1°C° 0 mm 3 mps 756 mmHg 66%
01:00 +1°C° 0 mm 3 mps 756 mmHg 66%
02:00 +1°C° 0 mm 3 mps 756 mmHg 66%
03:00 +1°C° 0 mm 3 mps 756 mmHg 65%
04:00 +1°C° 0 mm 3 mps 756 mmHg 65%
05:00 +1°C° 0 mm 3 mps 756 mmHg 65%
06:00 0°C° 0 mm 4 mps 756 mmHg 65%
07:00 0°C° 0 mm 4 mps 756 mmHg 63%
08:00 +1°C° 0 mm 4 mps 755 mmHg 61%
09:00 +1°C° 0 mm 5 mps 755 mmHg 58%
10:00 +2°C° 0 mm 5 mps 755 mmHg 55%
11:00 +5°C° 0 mm 5 mps 755 mmHg 52%
12:00 +6°C° 0 mm 5 mps 755 mmHg 49%
13:00 +6°C° 0 mm 5 mps 755 mmHg 49%
14:00 +6°C° 0 mm 5 mps 755 mmHg 49%
15:00 +6°C° 0 mm 5 mps 754 mmHg 50%
16:00 +5°C° 0 mm 4 mps 754 mmHg 53%
17:00 +4°C° 0 mm 4 mps 754 mmHg 57%
18:00 +3°C° 0 mm 4 mps 754 mmHg 60%
19:00 +3°C° 0 mm 4 mps 754 mmHg 60%
20:00 +3°C° 0 mm 4 mps 754 mmHg 61%
21:00 +3°C° 0 mm 4 mps 754 mmHg 61%
22:00 +1°C° 0 mm 4 mps 754 mmHg 61%
23:00 +1°C° 0 mm 4 mps 753 mmHg 61%
Show more